Location: ??????
(33.3472°N, 35.4764°E)
Time: 14:15:06
(UTC+00:00)

Cosmos 2263 Rocket - Pass Details

Date: 21 August 2019
Orbit: 823 x 849 km, 71.0° (Epoch: 19 September)

Event Time Altitude Azimuth Distance (km) Brightness Sun altitude
Exits shadow 00:11:04 13° 125° (SE) 2,223 4.4 -32.1°
Maximum altitude 00:13:18 16° 99° (E) 2,038 4.5 -31.8°
Drops below altitude 10° 00:16:42 10° 62° (ENE) 2,469 5.4 -31.3°
Sets 00:20:03 0° 42° (NE) 3,412 6.5 -30.8°
